Theta_e
324 316 322 313 299 297 293 298 301 303 305 310 312 311 310 313 308 301 330 333 335 337 340 343 345 346 346 347 344 345 343 344 344 343 344 344 342 340 339 340 340 338 336 335 336 336 335 335 334
318 318 315 306 296 291 295 300 301 304 311 316 317 316 314 310 320 326 328 333 336 338 341 342 343 346 346 345 345 343 342 340 340 340 341 342 340 338 338 338 340 336 336 333 334 335 335 334 335
311 317 309 302 295 293 298 301 303 304 314 310 317 318 315 314 320 327 328 334 337 337 340 341 343 346 346 345 344 343 341 338 337 337 337 338 339 336 337 337 339 340 339 334 333 333 333 332 333
306 311 304 298 294 299 300 302 304 307 310 311 315 313 317 323 325 327 332 337 336 336 338 341 344 346 346 345 344 342 340 338 336 336 336 336 339 339 338 336 336 336 334 334 332 330 330 330 331
307 305 297 293 294 299 301 303 307 307 308 310 313 310 312 321 327 329 334 336 334 335 337 341 343 345 345 345 343 342 341 340 339 339 339 339 338 335 338 335 335 333 333 332 331 329 329 328 328
299 302 294 291 294 298 302 302 302 306 308 311 313 311 313 321 324 330 334 334 336 336 337 340 337 340 342 343 342 341 340 340 339 338 337 337 334 333 335 334 333 332 332 331 330 329 328 327 326
298 297 293 291 295 298 301 305 305 304 308 311 318 311 311 316 324 330 333 335 336 336 338 339 338 337 336 338 339 339 339 339 338 338 336 334 332 333 333 332 334 330 330 331 330 329 328 327 327
299 297 292 293 293 296 302 305 305 307 307 317 320 311 311 317 325 328 333 333 334 335 336 337 335 336 336 335 332 333 335 336 336 334 332 330 330 330 331 328 331 332 331 330 328 327 327 328 328
302 294 291 294 295 298 300 303 304 306 308 312 317 315 318 322 325 328 327 329 330 331 334 335 336 333 333 333 330 329 330 332 331 329 326 324 323 324 324 325 330 332 332 329 328 327 328 329 325
297 293 295 299 300 299 298 299 299 303 307 310 313 317 318 323 323 323 323 324 326 327 331 333 333 334 332 335 329 328 329 328 325 324 323 322 321 322 324 321 325 330 329 331 331 331 330 324 318
296 294 300 300 299 299 298 298 300 301 302 308 311 313 316 321 321 321 322 324 326 328 331 332 332 334 332 333 330 326 325 323 323 322 320 319 320 318 319 318 318 319 319 321 324 322 320 319 317
295 298 301 302 303 299 298 300 299 303 303 305 307 316 315 319 320 321 322 323 325 327 329 331 332 332 332 331 329 326 325 321 320 321 320 318 317 316 316 316 316 316 317 317 317 316 316 316 317
299 300 300 301 303 299 302 299 298 299 303 313 310 316 313 318 320 321 323 324 326 326 329 330 331 332 333 329 328 326 325 322 321 321 320 319 317 316 316 316 316 315 316 315 315 315 315 315 316
301 305 302 302 303 303 300 298 299 299 305 315 318 317 313 314 316 317 323 326 327 328 328 330 331 331 331 329 327 327 325 324 322 321 322 320 319 317 317 316 316 316 316 316 316 315 315 315 315
300 299 302 304 303 301 301 297 296 301 306 312 317 317 318 315 314 317 323 325 327 328 330 330 330 331 329 328 327 327 326 325 323 322 322 322 321 318 318 317 316 316 317 316 316 316 316 315 316
294 294 291 298 304 304 300 296 300 302 301 307 313 316 318 319 318 318 318 324 326 328 328 330 332 330 329 328 326 326 325 325 325 323 323 323 323 321 319 317 317 318 317 317 316 315 315 315 314
291 284 288 293 302 303 299 294 302 302 299 299 305 313 316 318 320 322 320 321 324 326 326 327 329 328 329 328 327 325 325 324 324 323 323 323 323 322 320 319 319 319 318 317 316 316 314 314 314
283 287 287 289 296 299 296 297 301 302 298 298 299 299 308 316 321 324 324 323 322 325 326 327 328 328 327 328 326 324 324 324 324 323 323 324 324 323 321 320 320 320 318 318 317 316 315 315 315
287 284 284 289 296 297 296 296 300 303 298 296 296 298 299 311 320 322 323 324 324 323 324 326 326 327 327 325 323 323 323 325 326 327 327 326 325 324 323 322 321 320 320 320 319 317 315 315 315
287 285 283 287 294 295 292 294 299 302 303 300 301 299 300 299 307 318 321 322 324 324 324 325 326 327 327 327 327 325 325 326 328 330 330 329 328 327 326 325 322 322 321 320 319 318 317 316 316
287 285 285 285 287 290 289 289 293 299 302 300 301 301 302 299 301 300 306 321 323 324 324 324 326 326 328 328 326 327 326 325 325 325 327 328 328 327 326 325 325 323 323 322 321 319 320 320 316
281 289 288 286 284 280 290 280 290 296 297 301 302 302 302 303 301 302 308 316 321 324 326 326 325 326 328 327 327 327 327 324 323 324 325 326 326 325 325 325 325 324 323 323 323 322 323 322 321
283 289 288 287 284 283 282 284 284 293 294 297 302 304 303 305 302 301 311 313 309 317 322 323 324 324 325 327 329 328 327 327 327 327 327 326 326 325 325 325 324 324 324 324 324 324 323 324 323
287 286 287 286 284 277 282 283 281 287 292 296 300 304 306 303 300 301 302 303 305 307 313 315 313 312 320 324 325 326 326 327 327 327 326 326 327 328 328 328 328 328 327 327 326 325 326 325 324
285 280 276 275 275 274 283 281 285 288 291 295 299 301 304 299 296 297 299 300 302 304 307 311 309 307 312 313 314 315 315 318 322 322 323 324 325 326 326 328 328 328 328 327 326 325 325 325 325
283 279 276 270 271 274 282 278 284 291 294 291 291 293 296 292 295 296 297 298 300 303 307 309 308 307 307 308 307 307 307 308 308 308 310 310 311 312 311 313 315 316 319 323 325 325 325 324 325
278 278 283 278 275 272 277 282 286 287 288 290 292 291 290 292 294 295 296 296 296 297 298 304 303 302 301 301 302 303 303 301 300 300 301 302 302 304 303 305 306 308 308 309 310 314 316 318 319
282 285 278 279 271 268 275 278 279 283 286 289 290 291 292 294 295 295 295 295 295 296 296 297 298 298 298 298 298 298 298 298 298 297 296 297 298 299 299 299 301 302 302 303 305 305 307 307 310
279 278 280 281 278 273 270 275 282 285 287 289 290 291 292 292 293 293 292 292 292 292 293 293 294 294 294 295 295 295 294 294 294 294 294 294 295 295 295 296 297 297 297 298 298 298 299 300 301
285 280 279 274 275 278 276 276 283 284 285 289 289 289 289 290 289 289 289 289 289 289 290 291 292 291 291 292 292 291 291 291 291 290 291 292 292 292 292 292 292 292 293 293 294 293 294 294 295
Wind_Speed
6 3 2 5 5 5 2 4 2 4 2 1 3 4 5 2 4 4 2 3 12 13 9 13 17 17 16 16 15 13 14 14 14 13 13 14 14 12 12 12 13 12 15 13 12 13 13 12 10
4 1 5 3 5 3 4 2 4 3 3 5 6 3 4 2 2 6 6 7 13 12 9 11 15 17 18 17 16 14 14 13 12 11 11 12 12 12 11 11 12 11 14 12 11 11 11 11 11
1 3 4 5 3 4 4 4 5 3 6 2 4 3 2 2 2 10 4 12 12 9 7 11 15 17 18 17 15 14 13 12 12 11 11 10 10 12 9 10 10 12 14 12 11 10 10 11 12
3 5 5 5 3 6 4 2 3 2 2 0 3 6 2 2 7 6 11 12 12 8 7 13 16 18 18 16 16 15 14 13 12 11 11 11 11 14 11 7 9 9 12 10 9 8 9 9 10
4 3 3 2 4 5 5 5 2 3 1 2 3 4 2 3 7 13 13 11 15 8 7 11 15 17 17 15 15 14 14 13 10 10 9 10 8 10 11 9 9 7 8 7 7 7 8 8 9
4 3 3 3 5 4 6 2 3 3 4 1 3 4 2 3 7 9 11 11 13 13 7 7 11 14 15 15 15 13 13 13 11 10 6 10 10 9 11 10 8 7 6 5 5 6 7 8 8
6 4 4 3 4 4 4 3 0 2 5 4 7 6 1 3 6 8 10 12 11 13 10 6 7 9 11 11 12 12 12 11 10 12 9 9 9 7 8 6 8 5 5 3 4 5 6 7 7
5 4 5 4 3 6 3 7 4 3 4 4 4 5 5 5 9 10 11 12 12 13 11 11 5 6 6 7 11 11 11 11 10 11 9 8 6 5 2 5 4 7 4 2 3 3 5 6 8
3 4 4 6 7 5 2 5 3 5 3 1 1 2 0 16 13 13 13 11 12 12 11 12 9 5 6 6 7 10 10 10 10 8 10 7 3 3 4 5 5 4 3 2 2 3 3 4 6
5 4 9 7 6 4 1 2 1 4 2 1 1 6 10 16 15 15 18 15 14 13 12 10 12 9 7 7 7 6 6 5 5 6 7 5 4 4 4 4 5 5 5 5 5 4 4 4 2
5 7 5 4 4 4 3 2 2 2 3 3 5 6 8 14 12 12 11 13 15 12 8 9 12 12 9 7 5 3 3 3 3 6 6 5 4 3 2 2 1 2 3 2 2 2 2 3 3
4 7 6 3 4 2 3 1 3 4 4 1 7 10 9 14 14 14 14 12 15 14 12 10 13 12 9 5 5 4 4 4 3 4 6 4 3 4 4 3 4 3 2 3 3 2 4 5 5
3 4 7 5 6 4 0 4 3 5 6 4 4 11 14 11 10 7 7 8 11 16 14 13 13 12 10 7 4 4 4 4 5 4 5 4 4 4 3 4 3 3 3 3 3 3 4 5 5
5 6 3 6 6 3 5 4 4 2 1 3 6 9 8 12 12 6 10 13 16 15 15 15 13 9 7 7 6 5 4 4 4 4 5 7 5 4 4 3 4 3 3 3 4 4 4 4 4
4 5 4 6 6 5 4 7 7 7 2 3 6 6 6 7 8 15 13 15 17 13 14 15 15 11 10 8 6 5 4 4 4 4 5 6 5 5 5 4 4 4 3 5 3 4 3 4 3
4 2 6 4 8 4 7 18 10 9 8 8 7 7 7 10 11 7 8 8 10 11 13 11 9 11 10 9 6 4 4 4 4 4 4 6 6 6 5 4 4 4 4 3 3 3 3 4 4
4 4 6 5 9 7 9 3 9 8 8 9 8 8 9 8 9 9 9 12 11 11 10 10 9 10 11 8 6 5 6 5 5 4 4 6 6 6 5 4 4 4 3 4 4 4 3 3 4
3 5 4 6 5 7 6 13 8 6 9 11 10 9 9 9 17 12 10 9 9 10 10 11 10 10 8 4 4 3 3 3 3 4 4 6 6 6 6 4 5 4 3 4 3 5 4 4 4
7 6 8 6 5 4 16 14 17 9 7 7 9 9 9 11 11 8 10 9 10 10 12 13 12 11 9 5 3 3 4 4 5 6 8 7 6 6 7 5 4 4 5 5 5 2 4 3 3
14 16 9 10 6 4 4 13 15 15 15 13 15 13 10 6 7 8 10 12 13 14 15 14 14 12 11 8 6 4 4 4 5 7 8 8 8 8 7 7 6 6 5 5 5 5 2 3 4
11 15 11 7 9 6 3 10 10 10 10 8 13 8 11 10 9 8 9 13 12 14 17 15 13 12 12 11 5 3 3 1 2 2 3 6 8 8 8 8 7 7 6 6 6 5 8 7 3
13 4 10 12 5 5 1 11 18 19 16 18 16 12 10 12 7 6 7 8 12 15 12 13 12 12 12 11 9 12 9 7 4 4 3 4 6 6 7 8 8 7 5 6 6 5 8 6 8
8 5 6 11 15 6 6 7 7 10 22 24 17 15 13 15 11 9 7 6 3 5 8 8 9 8 6 9 10 8 7 3 2 1 3 3 4 5 5 5 5 5 4 6 7 6 7 7 7
6 6 10 3 8 11 18 9 6 9 18 12 14 19 18 11 9 7 4 6 5 5 5 8 10 6 6 6 6 6 5 4 3 3 3 3 3 3 4 5 5 5 7 7 7 8 9 8 7
8 7 5 7 8 15 17 8 23 4 4 5 14 15 16 11 11 9 8 7 7 7 6 7 9 8 6 7 6 5 5 4 4 3 2 2 1 2 4 3 4 4 6 6 6 6 7 7 6
10 8 7 9 8 17 6 13 13 6 7 2 1 2 4 7 7 8 7 6 7 7 7 7 9 10 7 7 8 6 6 4 4 5 3 4 4 4 6 6 6 7 7 6 3 3 4 5 6
5 10 14 10 3 2 7 26 9 2 2 2 5 2 7 10 6 9 9 7 7 7 7 9 10 9 8 8 7 7 6 6 6 6 5 4 4 4 6 6 5 5 5 6 7 5 6 6 4
11 3 7 6 7 5 6 18 16 5 5 3 3 3 5 5 10 9 9 9 9 9 8 9 9 11 9 9 8 7 8 8 7 7 7 6 6 6 6 6 5 5 5 6 5 4 4 4 4
7 12 8 4 8 5 2 6 4 11 8 10 7 6 8 8 8 8 9 9 10 9 8 9 9 11 8 13 8 7 8 10 8 7 6 5 5 7 7 7 5 5 6 6 5 6 5 5 5
8 6 9 8 6 10 5 9 2 6 5 6 6 7 6 10 11 10 8 9 9 9 9 10 8 10 10 9 7 9 8 9 9 6 7 5 7 5 4 4 5 6 6 4 4 5 5 6 7
Wind_Direction
336 351 81 44 57 64 257 259 247 295 336 294 96 135 170 65 156 202 107 132 136 142 145 145 147 142 142 130 124 118 112 107 106 110 101 101 99 98 98 94 90 91 91 88 90 88 81 69 57
316 278 43 85 87 75 268 231 229 220 167 156 86 59 44 92 78 121 127 154 143 141 140 144 145 143 137 136 131 127 123 120 119 115 111 107 105 100 98 105 105 104 100 92 93 90 79 67 56
227 35 81 91 108 182 219 222 280 299 165 51 101 61 109 118 46 151 137 144 137 138 131 141 145 145 141 139 134 130 128 128 126 129 125 123 117 108 99 101 79 112 104 93 90 87 77 70 67
31 14 36 89 228 257 227 337 295 75 17 91 124 82 55 337 154 158 139 136 132 133 121 144 147 148 145 143 141 140 138 136 135 138 139 133 149 122 116 113 105 97 91 91 86 81 74 68 67
32 58 60 92 259 268 316 287 256 100 342 7 344 172 73 44 97 130 136 136 148 136 131 148 150 148 148 149 148 148 142 141 137 142 142 128 128 133 124 111 99 109 94 90 79 68 59 56 56
38 92 64 225 242 275 274 303 281 199 133 119 83 105 122 94 120 142 136 134 150 152 139 146 144 149 153 153 152 151 146 139 143 130 142 125 148 149 143 133 124 114 101 89 67 48 37 34 33
121 94 198 221 279 312 251 344 143 238 154 211 155 129 133 184 142 134 133 134 135 153 156 136 143 151 152 153 150 149 151 146 149 143 129 131 160 154 156 148 125 132 112 77 48 28 20 13 12
113 102 158 225 216 269 309 350 339 204 196 112 156 186 199 183 144 119 132 145 150 160 162 169 136 148 149 152 152 155 156 155 152 145 141 152 146 154 176 116 140 87 103 44 18 5 359 354 354
124 86 206 208 157 245 330 42 2 293 122 78 248 152 48 131 131 137 150 156 164 172 169 169 169 151 146 148 159 157 159 157 158 152 155 150 135 183 154 153 162 153 161 213 261 289 305 331 348
132 164 215 206 195 210 228 149 328 10 357 254 75 35 122 138 150 158 165 170 176 180 177 172 174 169 157 164 159 162 166 163 161 164 163 150 154 169 169 169 196 205 205 221 238 258 290 347 325
169 193 221 238 212 166 180 261 140 129 231 238 211 152 164 154 163 166 173 180 178 176 178 180 181 176 167 171 168 160 156 159 168 174 166 165 149 146 148 167 215 211 242 237 271 294 296 287 281
187 218 183 224 221 175 208 169 300 153 210 283 262 165 158 173 177 175 173 180 181 180 182 179 186 181 177 161 173 171 166 169 173 182 177 163 170 179 178 187 209 215 227 235 235 248 265 271 264
219 233 198 200 190 228 276 239 225 260 251 326 185 167 176 184 179 171 174 163 185 192 186 188 191 185 182 172 171 169 185 181 178 174 179 172 183 205 194 207 203 211 196 215 246 255 268 274 279
326 258 226 209 203 215 186 237 147 264 199 47 159 182 188 186 183 154 172 178 194 197 194 195 195 186 181 184 174 183 168 179 182 188 191 184 186 193 202 222 224 235 210 217 224 244 266 272 281
289 279 245 214 188 220 156 255 210 216 172 176 186 185 188 203 183 196 189 186 183 197 195 194 196 182 180 192 185 170 177 181 193 193 195 197 190 199 202 215 225 237 226 237 236 253 251 271 271
225 224 238 202 164 246 173 254 218 211 173 212 211 204 205 206 210 206 181 193 188 183 188 188 190 188 184 189 178 176 178 182 197 192 188 202 197 197 211 216 230 217 215 215 237 237 255 248 254
242 242 229 323 209 184 195 263 223 195 187 204 215 212 212 216 221 202 197 186 179 188 183 179 182 194 194 185 181 181 185 191 196 188 192 202 204 200 206 219 234 216 216 220 218 241 210 243 251
249 237 277 229 206 211 228 240 268 232 183 201 199 211 211 212 228 204 195 179 174 181 185 184 185 183 187 187 169 168 171 200 179 199 202 205 207 197 197 212 225 212 230 233 230 234 233 238 250
279 306 317 334 272 240 230 232 239 231 228 236 204 207 214 213 236 193 180 181 176 183 180 190 186 183 171 162 162 180 208 206 206 200 210 207 205 205 204 210 207 207 217 232 214 217 243 278 231
248 260 281 285 252 243 265 249 242 225 226 220 218 221 219 221 202 197 187 185 193 188 194 192 193 182 182 186 186 166 167 207 206 198 199 203 203 205 210 214 209 209 226 223 217 195 230 228 188
248 248 248 262 332 267 359 264 239 236 227 219 233 217 213 213 204 197 191 200 192 196 194 195 188 181 185 187 162 135 125 112 147 213 187 196 195 201 203 208 212 209 206 228 215 205 215 255 211
264 257 234 232 270 251 164 271 219 222 228 222 217 214 200 212 216 204 201 187 193 205 192 188 175 177 188 179 187 197 199 200 196 184 194 208 210 212 205 211 211 214 209 226 228 210 227 223 254
259 278 294 217 227 331 256 264 244 187 228 225 213 212 209 214 193 204 192 171 135 162 177 161 157 158 158 175 194 200 206 156 157 161 236 236 246 233 222 214 210 224 215 239 239 227 233 229 246
252 318 279 290 227 239 225 223 211 199 226 219 207 212 213 202 194 178 161 139 118 101 117 121 119 108 124 158 154 179 187 177 177 200 229 249 243 240 230 217 228 231 235 236 239 237 245 238 236
200 169 207 223 196 230 189 210 243 277 287 228 214 206 206 189 163 160 166 148 128 122 116 130 125 110 108 104 93 99 105 99 105 76 64 43 17 3 333 306 257 240 246 248 245 237 243 243 247
204 193 241 191 199 246 90 226 236 253 199 257 309 279 134 138 142 145 135 130 121 119 123 128 124 115 95 98 90 74 75 89 77 61 57 65 40 21 7 13 10 7 3 1 320 263 257 253 245
194 231 249 282 278 318 184 238 309 115 27 17 5 80 165 145 136 131 113 95 87 91 88 120 114 103 96 107 100 89 82 77 83 63 64 54 38 28 14 15 17 13 21 23 5 0 355 347 335
223 236 214 205 229 240 228 231 232 182 198 235 233 130 86 94 114 101 95 92 80 79 85 85 91 100 108 100 79 84 79 75 65 63 51 41 38 31 26 20 18 35 31 16 19 35 17 338 354
206 241 247 312 214 242 280 250 244 201 209 208 180 142 123 104 90 89 94 89 89 82 77 78 77 90 80 72 84 81 75 76 68 61 45 43 52 32 21 11 7 21 29 21 13 13 0 349 331
220 237 228 230 253 239 236 258 17 281 295 131 119 107 92 105 102 93 83 90 88 92 89 84 78 83 70 68 70 70 78 83 73 51 41 24 49 36 34 22 21 15 15 6 23 6 359 353 349